Time,TemperatureF,DewpointF,PressureIn,WindDirection,WindDirectionDegrees,WindSpeedMPH,WindSpeedGustMPH,Humidity,HourlyPrecipIn,Conditions,Clouds,dailyrainin,SoftwareType,DateUTC
2013-07-21 00:01:00,68.3,62.2,29.84,NNE,16,0.0,1.2,81,0.00,BKN,,0.00,WeatherDisplay:10.37,2013-07-21 04:01:00,
2013-07-21 00:06:00,68.4,62.3,29.84,NNE,20,0.1,2.3,81,0.00,BKN,,0.00,WeatherDisplay:10.37,2013-07-21 04:06:00,
2013-07-21 00:12:00,68.3,62.2,29.84,NE,55,0.0,2.3,81,0.00,BKN,,0.00,WeatherDisplay:10.37,2013-07-21 04:12:00,
2013-07-21 00:17:00,68.2,62.1,29.84,NNE,15,1.4,3.5,81,0.00,BKN,,0.00,WeatherDisplay:10.37,2013-07-21 04:17:00,
2013-07-21 00:22:00,68.2,62.1,29.85,NNE,15,0.0,0.0,81,0.00,BKN,,0.00,WeatherDisplay:10.37,2013-07-21 04:22:00,
2013-07-21 00:27:00,68.3,62.2,29.85,NNE,15,0.0,0.0,81,0.00,BKN,,0.00,WeatherDisplay:10.37,2013-07-21 04:27:00,
2013-07-21 00:32:00,68.3,62.2,29.85,NE,42,1.5,2.3,81,0.00,BKN,,0.00,WeatherDisplay:10.37,2013-07-21 04:32:00,
2013-07-21 00:37:00,68.2,62.5,29.85,ENE,75,2.3,3.5,82,0.00,BKN,,0.00,WeatherDisplay:10.37,2013-07-21 04:37:00,
2013-07-21 00:42:00,67.9,62.2,29.85,ENE,75,2.7,3.5,82,0.00,BKN,,0.00,WeatherDisplay:10.37,2013-07-21 04:42:00,
2013-07-21 00:47:00,67.6,62.3,29.84,East,80,0.0,2.3,83,0.00,BKN,,0.00,WeatherDisplay:10.37,2013-07-21 04:47:00,
2013-07-21 00:52:00,67.4,62.1,29.85,East,84,2.9,3.5,83,0.00,BKN,,0.00,WeatherDisplay:10.37,2013-07-21 04:52:00,
2013-07-21 00:57:00,67.1,62.1,29.85,East,87,0.0,0.0,84,0.00,BKN,,0.00,WeatherDisplay:10.37,2013-07-21 04:57:00,
2013-07-21 01:02:00,66.8,62.1,29.85,East,87,1.6,3.0,85,0.00,BKN,,0.00,WeatherDisplay:10.37,2013-07-21 05:02:00,
2013-07-21 01:07:00,66.6,61.9,29.85,ENE,77,2.5,3.5,85,0.00,BKN,,0.00,WeatherDisplay:10.37,2013-07-21 05:07:00,
2013-07-21 01:12:00,66.5,62.2,29.85,ENE,71,1.8,3.5,86,0.00,BKN,,0.00,WeatherDisplay:10.37,2013-07-21 05:12:00,
2013-07-21 01:17:00,66.3,62.0,29.85,ENE,69,3.0,4.6,86,0.00,BKN,,0.00,WeatherDisplay:10.37,2013-07-21 05:17:00,
2013-07-21 01:22:00,66.4,62.4,29.86,ENE,68,1.3,3.5,87,0.00,BKN,,0.00,WeatherDisplay:10.37,2013-07-21 05:22:00,
2013-07-21 01:27:00,66.4,62.4,29.86,ENE,69,3.2,3.5,87,0.00,BKN,,0.00,WeatherDisplay:10.37,2013-07-21 05:27:00,
2013-07-21 01:33:00,66.3,62.0,29.86,ENE,70,2.1,3.5,86,0.00,BKN,,0.00,WeatherDisplay:10.37,2013-07-21 05:33:00,
2013-07-21 01:38:00,66.4,62.4,29.86,ENE,70,2.5,3.5,87,0.00,BKN,,0.00,WeatherDisplay:10.37,2013-07-21 05:38:00,
2013-07-21 01:43:00,66.4,62.4,29.85,ENE,71,0.1,1.2,87,0.00,BKN,,0.00,WeatherDisplay:10.37,2013-07-21 05:43:00,
2013-07-21 01:48:00,66.3,62.3,29.85,ENE,71,2.2,3.5,87,0.00,BKN,,0.00,WeatherDisplay:10.37,2013-07-21 05:48:00,
2013-07-21 01:53:00,66.2,62.2,29.85,ENE,71,1.4,3.5,87,0.00,BKN,,0.00,WeatherDisplay:10.37,2013-07-21 05:53:00,
2013-07-21 01:58:00,66.0,62.3,29.85,ENE,71,0.3,3.5,88,0.00,BKN,,0.00,WeatherDisplay:10.37,2013-07-21 05:58:00,
2013-07-21 02:03:00,65.9,62.2,29.85,ENE,71,1.9,3.5,88,0.00,BKN,,0.00,WeatherDisplay:10.37,2013-07-21 06:03:00,
2013-07-21 02:09:00,65.8,62.1,29.86,ENE,71,2.4,3.5,88,0.00,BKN,,0.00,WeatherDisplay:10.37,2013-07-21 06:09:00,
2013-07-21 02:14:00,65.8,62.1,29.86,ENE,71,2.1,2.3,88,0.00,BKN,,0.00,WeatherDisplay:10.37,2013-07-21 06:14:00,
2013-07-21 02:19:00,65.8,61.8,29.86,ENE,71,1.6,3.5,87,0.00,BKN,,0.00,WeatherDisplay:10.37,2013-07-21 06:19:00,
2013-07-21 02:24:00,65.8,61.8,29.86,ENE,71,1.4,3.5,87,0.00,BKN,,0.00,WeatherDisplay:10.37,2013-07-21 06:24:00,
2013-07-21 02:29:00,65.8,61.8,29.86,ENE,71,0.9,3.5,87,0.00,BKN,,0.00,WeatherDisplay:10.37,2013-07-21 06:29:00,
2013-07-21 02:34:00,65.8,61.8,29.86,ENE,71,1.4,2.3,87,0.00,BKN,,0.00,WeatherDisplay:10.37,2013-07-21 06:34:00,
2013-07-21 02:39:00,65.7,61.7,29.86,ENE,71,1.1,3.5,87,0.00,BKN,,0.00,WeatherDisplay:10.37,2013-07-21 06:39:00,
2013-07-21 02:44:00,65.5,61.5,29.86,ENE,71,2.2,3.5,87,0.00,BKN,,0.00,WeatherDisplay:10.37,2013-07-21 06:44:00,
2013-07-21 02:50:00,65.2,61.6,29.86,ENE,71,2.1,3.5,88,0.00,BKN,,0.00,WeatherDisplay:10.37,2013-07-21 06:50:00,
2013-07-21 02:55:00,65.0,61.4,29.85,ENE,71,3.1,3.5,88,0.00,BKN,,0.00,WeatherDisplay:10.37,2013-07-21 06:55:00,
2013-07-21 03:00:00,65.0,61.7,29.86,ENE,71,1.8,3.5,89,0.00,BKN,,0.00,WeatherDisplay:10.37,2013-07-21 07:00:00,
2013-07-21 03:05:00,64.9,61.6,29.86,ENE,71,3.0,4.0,89,0.00,BKN,,0.00,WeatherDisplay:10.37,2013-07-21 07:05:00,
2013-07-21 03:10:00,64.9,61.6,29.86,ENE,71,3.6,3.6,89,0.00,BKN,,0.00,WeatherDisplay:10.37,2013-07-21 07:10:00,
2013-07-21 03:15:00,64.7,61.4,29.86,ENE,65,3.7,4.6,89,0.00,BKN,,0.00,WeatherDisplay:10.37,2013-07-21 07:15:00,
2013-07-21 03:20:00,64.6,61.6,29.86,ENE,71,3.8,4.6,90,0.00,BKN,,0.00,WeatherDisplay:10.37,2013-07-21 07:20:00,
2013-07-21 03:26:00,64.7,61.7,29.86,ENE,70,3.1,3.5,90,0.00,BKN,,0.00,WeatherDisplay:10.37,2013-07-21 07:26:00,
2013-07-21 03:31:00,64.8,61.8,29.86,ENE,71,3.0,4.0,90,0.00,BKN,,0.00,WeatherDisplay:10.37,2013-07-21 07:31:00,
2013-07-21 03:36:00,65.0,61.7,29.86,ENE,71,2.7,3.5,89,0.00,BKN,,0.00,WeatherDisplay:10.37,2013-07-21 07:36:00,
2013-07-21 03:41:00,65.2,61.6,29.86,ENE,71,2.2,3.5,88,0.00,BKN,,0.00,WeatherDisplay:10.37,2013-07-21 07:41:00,
2013-07-21 03:46:00,65.5,61.5,29.86,ENE,71,2.7,3.5,87,0.00,BKN,,0.00,WeatherDisplay:10.37,2013-07-21 07:46:00,
2013-07-21 03:51:00,65.8,61.8,29.86,ENE,71,2.9,3.5,87,0.00,BKN,,0.00,WeatherDisplay:10.37,2013-07-21 07:51:00,
2013-07-21 03:56:00,65.9,61.9,29.86,ENE,73,3.0,4.6,87,0.00,BKN,,0.00,WeatherDisplay:10.37,2013-07-21 07:56:00,
2013-07-21 04:01:00,65.8,61.8,29.87,ENE,69,2.3,3.5,87,0.00,BKN,,0.00,WeatherDisplay:10.37,2013-07-21 08:01:00,
2013-07-21 04:06:00,65.7,61.7,29.86,ENE,76,2.6,4.6,87,0.00,BKN,,0.00,WeatherDisplay:10.37,2013-07-21 08:06:00,
2013-07-21 04:11:00,65.5,61.5,29.87,ENE,71,2.1,3.5,87,0.00,BKN,,0.00,WeatherDisplay:10.37,2013-07-21 08:11:00,
2013-07-21 04:16:00,65.3,61.7,29.87,ENE,68,2.9,4.6,88,0.00,BKN,,0.00,WeatherDisplay:10.37,2013-07-21 08:16:00,
2013-07-21 04:22:00,65.2,61.6,29.86,ENE,65,2.0,3.5,88,0.00,BKN,,0.00,WeatherDisplay:10.37,2013-07-21 08:22:00,
2013-07-21 04:27:00,65.0,61.4,29.86,ENE,63,1.4,3.5,88,0.00,BKN,,0.00,WeatherDisplay:10.37,2013-07-21 08:27:00,
2013-07-21 04:32:00,65.0,61.4,29.86,ENE,72,2.6,4.6,88,0.00,BKN,,0.00,WeatherDisplay:10.37,2013-07-21 08:32:00,
2013-07-21 04:37:00,65.0,61.0,29.86,ENE,76,3.5,5.8,87,0.00,BKN,,0.00,WeatherDisplay:10.37,2013-07-21 08:37:00,
2013-07-21 04:42:00,65.1,61.1,29.86,ENE,75,2.1,3.5,87,0.00,BKN,,0.00,WeatherDisplay:10.37,2013-07-21 08:42:00,
2013-07-21 04:47:00,65.2,61.2,29.87,ENE,71,2.9,3.5,87,0.00,BKN,,0.00,WeatherDisplay:10.37,2013-07-21 08:47:00,
2013-07-21 04:52:00,65.0,61.0,29.87,ENE,71,2.0,3.5,87,0.00,BKN,,0.00,WeatherDisplay:10.37,2013-07-21 08:52:00,
2013-07-21 04:57:00,64.9,60.9,29.88,ENE,70,1.5,3.5,87,0.00,BKN,,0.00,WeatherDisplay:10.37,2013-07-21 08:57:00,
2013-07-21 05:03:00,64.9,60.9,29.88,ENE,70,0.3,2.3,87,0.00,BKN,,0.00,WeatherDisplay:10.37,2013-07-21 09:03:00,
2013-07-21 05:08:00,64.9,60.9,29.88,ENE,70,0.0,0.0,87,0.00,BKN,,0.00,WeatherDisplay:10.37,2013-07-21 09:08:00,
2013-07-21 05:13:00,64.8,60.8,29.88,ENE,70,2.2,3.5,87,0.00,BKN,,0.00,WeatherDisplay:10.37,2013-07-21 09:13:00,
2013-07-21 05:18:00,64.6,60.6,29.89,ENE,70,3.0,3.5,87,0.00,BKN,,0.00,WeatherDisplay:10.37,2013-07-21 09:18:00,
2013-07-21 05:23:00,64.4,60.8,29.90,ENE,70,2.1,3.5,88,0.00,BKN,,0.00,WeatherDisplay:10.37,2013-07-21 09:23:00,
2013-07-21 05:28:00,64.3,60.7,29.89,ENE,76,0.0,1.2,88,0.00,BKN,,0.00,WeatherDisplay:10.37,2013-07-21 09:28:00,
2013-07-21 05:33:00,64.3,60.7,29.90,ENE,76,0.0,1.2,88,0.00,BKN,,0.00,WeatherDisplay:10.37,2013-07-21 09:33:00,
2013-07-21 05:38:00,64.3,60.7,29.90,ENE,76,2.3,3.5,88,0.00,BKN,,0.00,WeatherDisplay:10.37,2013-07-21 09:38:00,
2013-07-21 05:43:00,64.2,60.6,29.90,ENE,76,0.0,3.5,88,0.00,BKN,,0.00,WeatherDisplay:10.37,2013-07-21 09:43:00,
2013-07-21 05:49:00,64.1,60.5,29.90,ENE,76,0.0,1.2,88,0.00,BKN,,0.00,WeatherDisplay:10.37,2013-07-21 09:49:00,
2013-07-21 05:54:00,64.3,60.3,29.90,ENE,77,2.4,3.5,87,0.00,BKN,,0.00,WeatherDisplay:10.37,2013-07-21 09:54:00,
2013-07-21 05:59:00,64.3,60.7,29.90,East,89,2.4,3.5,88,0.00,BKN,,0.00,WeatherDisplay:10.37,2013-07-21 09:59:00,
2013-07-21 06:04:00,64.2,60.6,29.90,East,92,1.3,3.5,88,0.00,BKN,,0.00,WeatherDisplay:10.37,2013-07-21 10:04:00,
2013-07-21 06:09:00,64.2,60.6,29.90,East,92,1.6,3.5,88,0.00,BKN,,0.00,WeatherDisplay:10.37,2013-07-21 10:09:00,
2013-07-21 06:15:00,64.1,60.5,29.90,East,92,1.7,3.5,88,0.00,BKN,,0.00,WeatherDisplay:10.37,2013-07-21 10:15:00,
2013-07-21 06:20:00,64.2,60.9,29.91,East,92,1.4,3.5,89,0.00,BKN,,0.00,WeatherDisplay:10.37,2013-07-21 10:20:00,
2013-07-21 06:25:00,64.3,61.0,29.90,East,92,1.2,3.5,89,0.00,BKN,,0.00,WeatherDisplay:10.37,2013-07-21 10:25:00,
2013-07-21 06:30:00,64.5,61.2,29.90,East,92,1.9,3.5,89,0.00,BKN,,0.00,WeatherDisplay:10.37,2013-07-21 10:30:00,
2013-07-21 06:35:00,64.9,61.6,29.91,East,92,1.8,3.5,89,0.00,BKN,,0.00,WeatherDisplay:10.37,2013-07-21 10:35:00,
2013-07-21 06:40:00,65.2,61.9,29.91,East,92,0.0,0.0,89,0.00,BKN,,0.00,WeatherDisplay:10.37,2013-07-21 10:40:00,
2013-07-21 06:45:00,65.5,62.2,29.91,East,92,0.0,0.0,89,0.00,BKN,,0.00,WeatherDisplay:10.37,2013-07-21 10:45:00,
2013-07-21 06:50:00,65.7,62.4,29.91,East,92,0.0,0.0,89,0.00,BKN,,0.00,WeatherDisplay:10.37,2013-07-21 10:50:00,
2013-07-21 06:56:00,65.8,62.5,29.91,East,92,0.0,0.0,89,0.00,BKN,,0.00,WeatherDisplay:10.37,2013-07-21 10:56:00,
2013-07-21 07:01:00,65.9,62.2,29.91,East,92,0.0,0.0,88,0.00,BKN,,0.00,WeatherDisplay:10.37,2013-07-21 11:01:00,
2013-07-21 07:06:00,66.1,62.8,29.92,East,92,0.0,0.0,89,0.00,BKN,,0.00,WeatherDisplay:10.37,2013-07-21 11:06:00,
2013-07-21 07:11:00,66.3,63.0,29.92,East,92,0.0,0.0,89,0.00,BKN,,0.00,WeatherDisplay:10.37,2013-07-21 11:11:00,
2013-07-21 07:16:00,66.6,63.6,29.92,East,92,0.0,0.0,90,0.00,BKN,,0.00,WeatherDisplay:10.37,2013-07-21 11:16:00,
2013-07-21 07:21:00,66.7,63.4,29.92,East,92,0.0,0.0,89,0.00,BKN,,0.00,WeatherDisplay:10.37,2013-07-21 11:21:00,
2013-07-21 07:26:00,66.8,63.8,29.92,East,92,0.0,0.0,90,0.00,BKN,,0.00,WeatherDisplay:10.37,2013-07-21 11:26:00,
2013-07-21 07:31:00,67.0,64.0,29.92,East,92,0.0,0.0,90,0.00,BKN,,0.00,WeatherDisplay:10.37,2013-07-21 11:31:00,
2013-07-21 07:36:00,67.2,64.2,29.92,East,92,0.0,0.0,90,0.00,BKN,,0.00,WeatherDisplay:10.37,2013-07-21 11:36:00,
2013-07-21 07:41:00,67.5,64.5,29.92,East,92,0.0,0.0,90,0.00,BKN,,0.00,WeatherDisplay:10.37,2013-07-21 11:41:00,
2013-07-21 07:46:00,68.1,65.4,29.92,East,92,0.0,0.0,91,0.00,BKN,,0.00,WeatherDisplay:10.37,2013-07-21 11:46:00,
2013-07-21 07:51:00,68.7,66.0,29.93,East,92,0.0,1.2,91,0.00,BKN,,0.00,WeatherDisplay:10.37,2013-07-21 11:51:00,
2013-07-21 07:56:00,68.9,65.8,29.93,East,92,0.0,0.0,90,0.00,BKN,,0.00,WeatherDisplay:10.37,2013-07-21 11:56:00,
2013-07-21 08:01:00,69.1,66.0,29.93,East,92,0.0,0.0,90,0.00,BKN,,0.00,WeatherDisplay:10.37,2013-07-21 12:01:00,
2013-07-21 08:07:00,69.4,66.3,29.93,East,92,0.1,1.2,90,0.00,BKN,,0.00,WeatherDisplay:10.37,2013-07-21 12:07:00,
2013-07-21 08:12:00,69.7,66.6,29.93,East,90,0.0,0.0,90,0.00,BKN,,0.00,WeatherDisplay:10.37,2013-07-21 12:12:00,
2013-07-21 08:17:00,70.1,66.7,29.93,East,90,0.0,0.0,89,0.00,BKN,,0.00,WeatherDisplay:10.37,2013-07-21 12:17:00,
2013-07-21 08:22:00,70.3,66.6,29.93,East,90,0.0,0.0,88,0.00,BKN,,0.00,WeatherDisplay:10.37,2013-07-21 12:22:00,
2013-07-21 08:27:00,70.7,67.0,29.93,East,90,0.0,1.2,88,0.00,BKN,,0.00,WeatherDisplay:10.37,2013-07-21 12:27:00,
2013-07-21 08:32:00,71.2,67.1,29.93,East,82,0.4,3.5,87,0.00,BKN,,0.00,WeatherDisplay:10.37,2013-07-21 12:32:00,
2013-07-21 08:37:00,71.5,67.1,29.93,East,82,0.0,0.0,86,0.00,BKN,,0.00,WeatherDisplay:10.37,2013-07-21 12:37:00,
2013-07-21 08:42:00,72.0,67.6,29.93,ENE,77,1.2,3.5,86,0.00,BKN,,0.00,WeatherDisplay:10.37,2013-07-21 12:42:00,
2013-07-21 08:47:00,72.2,67.4,29.94,ENE,77,0.0,1.2,85,0.00,BKN,,0.00,WeatherDisplay:10.37,2013-07-21 12:47:00,
2013-07-21 08:53:00,72.4,67.3,29.93,ENE,77,0.0,0.0,84,0.00,BKN,,0.00,WeatherDisplay:10.37,2013-07-21 12:53:00,
2013-07-21 08:58:00,72.6,67.1,29.93,ENE,77,0.3,3.5,83,0.00,BKN,,0.00,WeatherDisplay:10.37,2013-07-21 12:58:00,
2013-07-21 09:03:00,73.0,67.5,29.93,ENE,77,0.8,3.5,83,0.00,BKN,,0.00,WeatherDisplay:10.37,2013-07-21 13:03:00,
2013-07-21 09:08:00,73.2,66.7,29.93,ENE,77,0.0,0.0,80,0.00,BKN,,0.00,WeatherDisplay:10.37,2013-07-21 13:08:00,
2013-07-21 09:13:00,73.7,68.2,29.93,ENE,75,0.4,2.0,83,0.00,BKN,,0.00,WeatherDisplay:10.37,2013-07-21 13:13:00,
2013-07-21 09:18:00,74.0,67.8,29.93,NW,326,1.4,3.5,81,0.00,BKN,,0.00,WeatherDisplay:10.37,2013-07-21 13:18:00,
2013-07-21 09:23:00,74.2,67.6,29.93,West,265,0.7,2.0,80,0.00,BKN,,0.00,WeatherDisplay:10.37,2013-07-21 13:23:00,
2013-07-21 09:28:00,74.5,67.9,29.93,West,265,0.8,3.0,80,0.00,BKN,,0.00,WeatherDisplay:10.37,2013-07-21 13:28:00,
2013-07-21 09:33:00,74.9,68.3,29.92,NNW,346,0.4,3.5,80,0.00,BKN,,0.00,WeatherDisplay:10.37,2013-07-21 13:33:00,
2013-07-21 09:38:00,75.0,68.0,29.93,North,5,2.3,3.5,79,0.00,BKN,,0.00,WeatherDisplay:10.37,2013-07-21 13:38:00,
2013-07-21 09:43:00,74.9,67.9,29.93,North,5,1.2,3.5,79,0.00,BKN,,0.00,WeatherDisplay:10.37,2013-07-21 13:43:00,
2013-07-21 09:48:00,74.9,68.3,29.93,NW,322,2.2,3.5,80,0.00,BKN,,0.00,WeatherDisplay:10.37,2013-07-21 13:48:00,
2013-07-21 09:54:00,74.9,67.9,29.93,North,5,3.2,4.6,79,0.00,BKN,,0.00,WeatherDisplay:10.37,2013-07-21 13:54:00,
2013-07-21 09:59:00,75.0,68.0,29.93,NE,40,0.2,2.0,79,0.00,BKN,,0.00,WeatherDisplay:10.37,2013-07-21 13:59:00,
2013-07-21 10:04:00,75.1,68.1,29.93,NE,36,1.5,4.0,79,0.00,BKN,,0.00,WeatherDisplay:10.37,2013-07-21 14:04:00,
2013-07-21 10:09:00,75.2,68.6,29.93,North,360,1.6,3.5,80,0.00,BKN,,0.00,WeatherDisplay:10.37,2013-07-21 14:09:00,
2013-07-21 10:14:00,75.3,68.7,29.93,North,360,1.0,3.5,80,0.00,BKN,,0.00,WeatherDisplay:10.37,2013-07-21 14:14:00,
2013-07-21 10:19:00,75.4,69.2,29.93,WNW,285,1.2,4.6,81,0.00,BKN,,0.00,WeatherDisplay:10.37,2013-07-21 14:19:00,
2013-07-21 10:24:00,75.3,68.0,29.94,North,350,0.3,4.0,78,0.00,BKN,,0.00,WeatherDisplay:10.37,2013-07-21 14:24:00,
2013-07-21 10:29:00,75.5,67.8,29.94,North,350,1.9,4.0,77,0.00,BKN,,0.00,WeatherDisplay:10.37,2013-07-21 14:29:00,
2013-07-21 10:34:00,75.7,68.7,29.94,NNW,333,0.0,0.0,79,0.00,BKN,,0.00,WeatherDisplay:10.37,2013-07-21 14:34:00,
2013-07-21 10:40:00,75.8,68.4,29.94,NNW,331,0.2,2.0,78,0.00,BKN,,0.00,WeatherDisplay:10.37,2013-07-21 14:40:00,
2013-07-21 10:45:00,75.7,68.7,29.94,NNW,330,0.0,0.0,79,0.00,BKN,,0.00,WeatherDisplay:10.37,2013-07-21 14:45:00,
2013-07-21 10:50:00,75.8,68.8,29.94,NNW,331,0.0,2.3,79,0.00,BKN,,0.00,WeatherDisplay:10.37,2013-07-21 14:50:00,
2013-07-21 10:55:00,75.8,68.4,29.94,NNW,344,0.8,3.5,78,0.00,BKN,,0.00,WeatherDisplay:10.37,2013-07-21 14:55:00,
2013-07-21 11:00:00,76.1,68.7,29.94,NNE,20,0.0,1.2,78,0.00,BKN,,0.00,WeatherDisplay:10.37,2013-07-21 15:00:00,
2013-07-21 11:05:00,76.3,69.3,29.94,NNW,340,1.8,3.5,79,0.00,FEW,,0.00,WeatherDisplay:10.37,2013-07-21 15:05:00,
2013-07-21 11:10:00,76.5,68.7,29.94,ENE,61,0.8,3.5,77,0.00,FEW,,0.00,WeatherDisplay:10.37,2013-07-21 15:10:00,
2013-07-21 11:15:00,76.9,70.3,29.94,North,355,3.4,5.8,80,0.00,FEW,,0.00,WeatherDisplay:10.37,2013-07-21 15:15:00,
2013-07-21 11:20:00,77.1,69.7,29.94,North,360,1.0,3.5,78,0.00,FEW,,0.00,WeatherDisplay:10.37,2013-07-21 15:20:00,
2013-07-21 11:25:00,77.0,68.5,29.94,North,360,0.0,1.0,75,0.00,FEW,,0.00,WeatherDisplay:10.37,2013-07-21 15:25:00,
2013-07-21 11:30:00,77.0,69.2,29.94,NNE,30,1.2,3.5,77,0.00,FEW,,0.00,WeatherDisplay:10.37,2013-07-21 15:30:00,
2013-07-21 11:35:00,76.9,69.5,29.94,ENE,67,2.2,3.5,78,0.00,FEW,,0.00,WeatherDisplay:10.37,2013-07-21 15:35:00,
2013-07-21 11:40:00,77.1,70.1,29.94,WNW,284,2.0,2.3,79,0.00,FEW,,0.00,WeatherDisplay:10.37,2013-07-21 15:40:00,
2013-07-21 11:46:00,76.7,68.9,29.95,West,265,0.9,3.5,77,0.00,FEW,,0.00,WeatherDisplay:10.37,2013-07-21 15:46:00,
2013-07-21 11:51:00,76.5,69.5,29.95,WNW,295,1.7,3.5,79,0.00,FEW,,0.00,WeatherDisplay:10.37,2013-07-21 15:51:00,
2013-07-21 11:56:00,76.4,69.8,29.94,North,355,2.6,3.5,80,0.00,FEW,,0.00,WeatherDisplay:10.37,2013-07-21 15:56:00,
2013-07-21 12:01:00,76.8,69.0,29.94,NNE,25,0.1,1.2,77,0.00,FEW,,0.00,WeatherDisplay:10.37,2013-07-21 16:01:00,
2013-07-21 12:06:00,77.7,70.7,29.95,West,280,0.9,3.5,79,0.00,BKN,,0.00,WeatherDisplay:10.37,2013-07-21 16:06:00,
2013-07-21 12:11:00,78.2,70.0,29.94,North,355,0.0,1.2,76,0.00,BKN,,0.00,WeatherDisplay:10.37,2013-07-21 16:11:00,
2013-07-21 12:16:00,78.7,71.3,29.95,North,355,3.5,5.0,78,0.00,BKN,,0.00,WeatherDisplay:10.37,2013-07-21 16:16:00,
2013-07-21 12:21:00,79.1,70.1,29.95,West,279,1.6,4.6,74,0.00,BKN,,0.00,WeatherDisplay:10.37,2013-07-21 16:21:00,
2013-07-21 12:26:00,79.0,68.8,29.94,West,280,0.5,3.5,71,0.00,BKN,,0.00,WeatherDisplay:10.37,2013-07-21 16:26:00,
2013-07-21 12:31:00,78.7,70.1,29.95,West,278,4.5,6.0,75,0.00,BKN,,0.00,WeatherDisplay:10.37,2013-07-21 16:31:00,
2013-07-21 12:36:00,78.5,69.9,29.94,West,272,4.7,5.8,75,0.00,BKN,,0.00,WeatherDisplay:10.37,2013-07-21 16:36:00,
2013-07-21 12:42:00,78.5,68.3,29.95,WNW,294,4.7,6.9,71,0.00,BKN,,0.00,WeatherDisplay:10.37,2013-07-21 16:42:00,
2013-07-21 12:47:00,78.7,70.5,29.94,North,355,5.0,9.0,76,0.00,BKN,,0.00,WeatherDisplay:10.37,2013-07-21 16:47:00,
2013-07-21 12:52:00,79.2,70.2,29.94,NNE,21,0.8,7.0,74,0.00,BKN,,0.00,WeatherDisplay:10.37,2013-07-21 16:52:00,
2013-07-21 12:57:00,79.5,68.9,29.94,West,265,3.1,5.0,70,0.00,BKN,,0.00,WeatherDisplay:10.37,2013-07-21 16:57:00,
2013-07-21 13:02:00,79.5,69.7,29.94,NNW,327,2.3,3.5,72,0.00,BKN,,0.00,WeatherDisplay:10.37,2013-07-21 17:02:00,
2013-07-21 13:07:00,79.8,70.4,29.94,North,350,4.0,5.0,73,0.00,BKN,,0.00,WeatherDisplay:10.37,2013-07-21 17:07:00,
2013-07-21 13:12:00,80.2,69.9,29.94,NNW,339,4.8,6.9,71,0.00,SCT,,0.00,WeatherDisplay:10.37,2013-07-21 17:12:00,
2013-07-21 13:18:00,80.3,67.0,29.94,WNW,299,0.0,4.6,64,0.00,SCT,,0.00,WeatherDisplay:10.37,2013-07-21 17:18:00,
2013-07-21 13:23:00,80.3,68.3,29.94,SW,217,0.0,5.8,67,0.00,SCT,,0.00,WeatherDisplay:10.37,2013-07-21 17:23:00,
2013-07-21 13:28:00,80.5,69.8,29.93,NNW,338,1.2,4.6,70,0.00,SCT,,0.00,WeatherDisplay:10.37,2013-07-21 17:28:00,
2013-07-21 13:33:00,80.8,70.1,29.93,NNE,22,1.1,5.8,70,0.00,SCT,,0.00,WeatherDisplay:10.37,2013-07-21 17:33:00,
2013-07-21 13:38:00,81.2,70.1,29.93,WSW,252,2.7,4.6,69,0.00,SCT,,0.00,WeatherDisplay:10.37,2013-07-21 17:38:00,
2013-07-21 13:43:00,81.1,67.8,29.93,WSW,242,1.1,3.5,64,0.00,SCT,,0.00,WeatherDisplay:10.37,2013-07-21 17:43:00,
2013-07-21 13:48:00,80.9,68.0,29.93,NW,311,2.8,4.6,65,0.00,SCT,,0.00,WeatherDisplay:10.37,2013-07-21 17:48:00,
2013-07-21 13:53:00,81.2,70.9,29.93,North,5,5.2,6.0,71,0.00,SCT,,0.00,WeatherDisplay:10.37,2013-07-21 17:53:00,
2013-07-21 13:58:00,81.6,70.4,29.93,NNW,335,5.0,10.4,69,0.00,SCT,,0.00,WeatherDisplay:10.37,2013-07-21 17:58:00,
2013-07-21 14:03:00,81.8,69.8,29.93,NW,323,0.2,4.6,67,0.00,SCT,,0.00,WeatherDisplay:10.37,2013-07-21 18:03:00,
2013-07-21 14:09:00,81.9,69.4,29.93,WNW,282,1.5,4.6,66,0.00,SCT,,0.00,WeatherDisplay:10.37,2013-07-21 18:09:00,
2013-07-21 14:14:00,82.0,71.2,29.93,ENE,72,1.3,3.5,70,0.00,SCT,,0.00,WeatherDisplay:10.37,2013-07-21 18:14:00,
2013-07-21 14:19:00,81.8,68.9,29.93,SW,223,2.1,6.0,65,0.00,SCT,,0.00,WeatherDisplay:10.37,2013-07-21 18:19:00,
2013-07-21 14:24:00,81.7,67.9,29.93,WNW,286,1.1,3.5,63,0.00,SCT,,0.00,WeatherDisplay:10.37,2013-07-21 18:24:00,
2013-07-21 14:29:00,82.0,70.0,29.93,East,96,0.0,2.3,67,0.00,SCT,,0.00,WeatherDisplay:10.37,2013-07-21 18:29:00,
2013-07-21 14:34:00,82.3,71.1,29.93,West,265,1.1,3.5,69,0.00,SCT,,0.00,WeatherDisplay:10.37,2013-07-21 18:34:00,
2013-07-21 14:39:00,82.7,70.6,29.93,NNW,332,3.2,5.8,67,0.00,SCT,,0.00,WeatherDisplay:10.37,2013-07-21 18:39:00,
2013-07-21 14:45:00,82.9,70.8,29.93,North,360,1.7,5.8,67,0.00,SCT,,0.00,WeatherDisplay:10.37,2013-07-21 18:45:00,
2013-07-21 14:50:00,83.2,70.7,29.93,West,268,0.0,0.0,66,0.00,SCT,,0.00,WeatherDisplay:10.37,2013-07-21 18:50:00,
2013-07-21 14:55:00,83.6,70.1,29.93,East,87,0.0,1.2,64,0.00,SCT,,0.00,WeatherDisplay:10.37,2013-07-21 18:55:00,
2013-07-21 15:00:00,83.6,69.7,29.93,East,82,0.0,0.0,63,0.00,SCT,,0.00,WeatherDisplay:10.37,2013-07-21 19:00:00,
2013-07-21 15:05:00,83.5,69.6,29.93,ENE,77,0.1,0.0,63,0.00,BKN,,0.00,WeatherDisplay:10.37,2013-07-21 19:05:00,
2013-07-21 16:07:00,81.3,69.3,29.92,East,97,0.1,1.2,67,0.00,BKN,,0.00,WeatherDisplay:10.37,2013-07-21 20:07:00,
2013-07-21 16:12:00,80.9,69.3,29.91,East,96,0.0,1.2,68,0.00,BKN,,0.00,WeatherDisplay:10.37,2013-07-21 20:12:00,
2013-07-21 16:17:00,80.2,69.9,29.91,East,96,0.0,0.0,71,0.00,BKN,,0.00,WeatherDisplay:10.37,2013-07-21 20:17:00,
2013-07-21 16:22:00,79.8,70.4,29.92,East,93,0.6,2.3,73,0.00,BKN,,0.00,WeatherDisplay:10.37,2013-07-21 20:22:00,
2013-07-21 16:27:00,79.3,69.5,29.92,East,93,0.0,0.0,72,0.00,BKN,,0.00,WeatherDisplay:10.37,2013-07-21 20:27:00,
2013-07-21 16:32:00,79.1,71.3,29.92,East,93,0.0,0.0,77,0.00,BKN,,0.00,WeatherDisplay:10.37,2013-07-21 20:32:00,
2013-07-21 16:37:00,78.9,70.7,29.91,East,94,0.0,0.0,76,0.00,BKN,,0.00,WeatherDisplay:10.37,2013-07-21 20:37:00,
2013-07-21 16:42:00,78.8,71.0,29.91,ESE,114,0.0,0.0,77,0.00,BKN,,0.00,WeatherDisplay:10.37,2013-07-21 20:42:00,
2013-07-21 16:47:00,78.7,70.5,29.91,ESE,114,0.0,0.0,76,0.00,BKN,,0.00,WeatherDisplay:10.37,2013-07-21 20:47:00,
2013-07-21 16:52:00,78.8,71.4,29.91,ESE,114,0.0,0.0,78,0.00,BKN,,0.00,WeatherDisplay:10.37,2013-07-21 20:52:00,
2013-07-21 16:58:00,78.9,71.1,29.91,ESE,114,0.0,0.0,77,0.00,BKN,,0.00,WeatherDisplay:10.37,2013-07-21 20:58:00,
2013-07-21 17:03:00,79.1,69.7,29.91,ESE,118,0.8,3.5,73,0.00,BKN,,0.00,WeatherDisplay:10.37,2013-07-21 21:03:00,
2013-07-21 17:08:00,79.4,70.0,29.91,South,186,2.0,5.0,73,0.00,BKN,,0.00,WeatherDisplay:10.37,2013-07-21 21:08:00,
2013-07-21 17:13:00,79.3,66.5,29.92,East,92,2.6,3.5,65,0.00,BKN,,0.00,WeatherDisplay:10.37,2013-07-21 21:13:00,
2013-07-21 17:18:00,79.3,66.5,29.92,ESE,103,0.0,1.2,65,0.00,BKN,,0.00,WeatherDisplay:10.37,2013-07-21 21:18:00,
2013-07-21 17:23:00,79.2,67.3,29.92,ESE,103,0.0,0.0,67,0.00,BKN,,0.00,WeatherDisplay:10.37,2013-07-21 21:23:00,
2013-07-21 17:28:00,78.7,65.9,29.92,ESE,103,0.0,0.0,65,0.00,BKN,,0.00,WeatherDisplay:10.37,2013-07-21 21:28:00,
2013-07-21 17:33:00,78.1,65.8,29.92,ESE,103,0.0,1.2,66,0.00,BKN,,0.00,WeatherDisplay:10.37,2013-07-21 21:33:00,
2013-07-21 17:38:00,77.9,66.9,29.92,ESE,103,0.0,0.0,69,0.00,BKN,,0.00,WeatherDisplay:10.37,2013-07-21 21:38:00,
2013-07-21 17:43:00,77.9,66.9,29.91,ESE,103,0.0,0.0,69,0.00,BKN,,0.00,WeatherDisplay:10.37,2013-07-21 21:43:00,
2013-07-21 17:48:00,77.9,67.3,29.91,ESE,103,0.0,0.0,70,0.00,BKN,,0.00,WeatherDisplay:10.37,2013-07-21 21:48:00,
2013-07-21 17:53:00,77.8,66.4,29.91,ESE,103,0.0,0.0,68,0.00,BKN,,0.00,WeatherDisplay:10.37,2013-07-21 21:53:00,
2013-07-21 17:58:00,77.5,66.1,29.91,ESE,103,0.0,0.0,68,0.00,BKN,,0.00,WeatherDisplay:10.37,2013-07-21 21:58:00,
2013-07-21 18:04:00,77.5,67.4,29.91,ESE,103,0.0,0.0,71,0.00,BKN,,0.00,WeatherDisplay:10.37,2013-07-21 22:04:00,
2013-07-21 18:09:00,77.4,68.1,29.91,ESE,103,0.0,0.0,73,0.00,BKN,,0.00,WeatherDisplay:10.37,2013-07-21 22:09:00,
2013-07-21 18:14:00,77.4,68.1,29.92,ESE,103,0.0,0.0,73,0.00,BKN,,0.00,WeatherDisplay:10.37,2013-07-21 22:14:00,
2013-07-21 18:19:00,77.4,68.1,29.92,ESE,103,0.0,0.0,73,0.00,BKN,,0.00,WeatherDisplay:10.37,2013-07-21 22:19:00,
2013-07-21 18:24:00,77.4,68.5,29.92,ESE,103,0.0,0.0,74,0.00,BKN,,0.00,WeatherDisplay:10.37,2013-07-21 22:24:00,
2013-07-21 18:29:00,77.6,69.4,29.91,ESE,103,0.0,0.0,76,0.00,BKN,,0.00,WeatherDisplay:10.37,2013-07-21 22:29:00,
2013-07-21 18:34:00,77.8,69.6,29.91,ESE,103,0.0,0.0,76,0.00,BKN,,0.00,WeatherDisplay:10.37,2013-07-21 22:34:00,
2013-07-21 18:39:00,77.6,68.3,29.91,ESE,103,0.0,0.0,73,0.00,BKN,,0.00,WeatherDisplay:10.37,2013-07-21 22:39:00,
2013-07-21 18:44:00,77.6,68.3,29.91,ESE,103,0.0,0.0,73,0.00,BKN,,0.00,WeatherDisplay:10.37,2013-07-21 22:44:00,
2013-07-21 18:49:00,77.6,68.3,29.91,ESE,103,0.0,0.0,73,0.00,BKN,,0.00,WeatherDisplay:10.37,2013-07-21 22:49:00,
2013-07-21 18:54:00,77.4,67.7,29.91,ESE,103,0.0,0.0,72,0.00,BKN,,0.00,WeatherDisplay:10.37,2013-07-21 22:54:00,
2013-07-21 19:00:00,77.4,69.2,29.91,ESE,103,0.0,0.0,76,0.00,BKN,,0.00,WeatherDisplay:10.37,2013-07-21 23:00:00,
2013-07-21 19:05:00,77.3,69.5,29.91,ESE,103,0.0,0.0,77,0.00,BKN,,0.00,WeatherDisplay:10.37,2013-07-21 23:05:00,
2013-07-21 19:10:00,77.2,69.0,29.91,ESE,103,0.0,0.0,76,0.00,BKN,,0.00,WeatherDisplay:10.37,2013-07-21 23:10:00,
2013-07-21 19:15:00,77.0,69.6,29.91,ESE,103,0.0,0.0,78,0.00,BKN,,0.00,WeatherDisplay:10.37,2013-07-21 23:15:00,
2013-07-21 19:20:00,76.9,68.8,29.91,ESE,103,0.0,0.0,76,0.00,BKN,,0.00,WeatherDisplay:10.37,2013-07-21 23:20:00,
2013-07-21 19:25:00,76.6,67.7,29.91,ESE,103,0.0,0.0,74,0.00,BKN,,0.00,WeatherDisplay:10.37,2013-07-21 23:25:00,
2013-07-21 19:30:00,76.3,67.0,29.92,ESE,103,0.0,0.0,73,0.00,BKN,,0.00,WeatherDisplay:10.37,2013-07-21 23:30:00,
2013-07-21 19:35:00,76.2,68.1,29.92,ESE,103,0.0,0.0,76,0.00,BKN,,0.00,WeatherDisplay:10.37,2013-07-21 23:35:00,
2013-07-21 19:41:00,76.0,66.7,29.92,ESE,103,0.0,0.0,73,0.00,BKN,,0.00,WeatherDisplay:10.37,2013-07-21 23:41:00,
2013-07-21 19:46:00,75.9,67.4,29.92,ESE,103,0.0,0.0,75,0.00,BKN,,0.00,WeatherDisplay:10.37,2013-07-21 23:46:00,
2013-07-21 19:51:00,75.9,68.5,29.92,ESE,103,0.0,0.0,78,0.00,BKN,,0.00,WeatherDisplay:10.37,2013-07-21 23:51:00,
2013-07-21 19:56:00,75.9,68.5,29.92,ESE,103,0.0,0.0,78,0.00,BKN,,0.00,WeatherDisplay:10.37,2013-07-21 23:56:00,
2013-07-21 20:01:00,75.8,68.1,29.92,ESE,103,0.0,0.0,77,0.00,BKN,,0.00,WeatherDisplay:10.37,2013-07-22 00:01:00,
2013-07-21 20:06:00,75.7,67.6,29.92,East,82,1.2,2.3,76,0.00,BKN,,0.00,WeatherDisplay:10.37,2013-07-22 00:06:00,
2013-07-21 20:11:00,75.5,67.0,29.92,NNE,29,0.0,0.0,75,0.00,BKN,,0.00,WeatherDisplay:10.37,2013-07-22 00:11:00,
2013-07-21 20:16:00,75.4,66.5,29.92,NNE,29,0.0,0.0,74,0.00,BKN,,0.00,WeatherDisplay:10.37,2013-07-22 00:16:00,
2013-07-21 20:21:00,75.4,66.9,29.92,NNE,29,0.0,1.2,75,0.00,BKN,,0.00,WeatherDisplay:10.37,2013-07-22 00:21:00,
2013-07-21 20:27:00,75.3,66.0,29.92,NNE,29,0.0,0.0,73,0.00,BKN,,0.00,WeatherDisplay:10.37,2013-07-22 00:27:00,
2013-07-21 20:32:00,75.1,65.9,29.93,NNE,29,0.0,0.0,73,0.00,BKN,,0.00,WeatherDisplay:10.37,2013-07-22 00:32:00,
2013-07-21 20:37:00,75.0,65.8,29.93,NNE,29,0.1,2.0,73,0.00,BKN,,0.00,WeatherDisplay:10.37,2013-07-22 00:37:00,
2013-07-21 20:42:00,74.9,65.7,29.93,NNE,29,0.0,1.2,73,0.00,BKN,,0.00,WeatherDisplay:10.37,2013-07-22 00:42:00,
2013-07-21 20:47:00,74.8,66.0,29.94,NNE,28,0.6,2.3,74,0.00,BKN,,0.00,WeatherDisplay:10.37,2013-07-22 00:47:00,
2013-07-21 20:52:00,74.6,65.4,29.94,NNE,28,2.2,3.5,73,0.00,BKN,,0.00,WeatherDisplay:10.37,2013-07-22 00:52:00,
2013-07-21 20:58:00,74.6,65.4,29.94,NNE,29,0.1,2.0,73,0.00,BKN,,0.00,WeatherDisplay:10.37,2013-07-22 00:58:00,
2013-07-21 21:03:00,74.5,64.5,29.94,NNE,28,0.0,0.0,71,0.00,BKN,,0.00,WeatherDisplay:10.37,2013-07-22 01:03:00,
2013-07-21 21:08:00,74.6,64.2,29.94,NNE,29,0.0,0.0,70,0.00,BKN,,0.00,WeatherDisplay:10.37,2013-07-22 01:08:00,
2013-07-21 21:13:00,74.7,65.1,29.94,NNE,28,0.0,0.0,72,0.00,BKN,,0.00,WeatherDisplay:10.37,2013-07-22 01:13:00,
2013-07-21 21:18:00,74.7,65.9,29.94,NNE,29,0.0,0.0,74,0.00,BKN,,0.00,WeatherDisplay:10.37,2013-07-22 01:18:00,
2013-07-21 21:23:00,74.5,66.4,29.94,NNE,28,0.0,0.0,76,0.00,BKN,,0.00,WeatherDisplay:10.37,2013-07-22 01:23:00,
2013-07-21 21:28:00,74.2,65.4,29.95,NNE,28,2.3,3.5,74,0.00,BKN,,0.00,WeatherDisplay:10.37,2013-07-22 01:28:00,
2013-07-21 21:33:00,73.9,63.5,29.95,NNE,28,0.1,1.2,70,0.00,BKN,,0.00,WeatherDisplay:10.37,2013-07-22 01:33:00,
2013-07-21 21:38:00,73.7,62.9,29.95,NNE,27,0.1,0.0,69,0.00,BKN,,0.00,WeatherDisplay:10.37,2013-07-22 01:38:00,
2013-07-21 21:44:00,73.7,62.9,29.95,NNE,27,0.0,2.3,69,0.00,BKN,,0.00,WeatherDisplay:10.37,2013-07-22 01:44:00,
2013-07-21 21:49:00,73.7,63.3,29.95,NNE,27,0.0,2.3,70,0.00,BKN,,0.00,WeatherDisplay:10.37,2013-07-22 01:49:00,
2013-07-21 21:54:00,73.7,63.3,29.96,NNE,27,0.0,1.2,70,0.00,BKN,,0.00,WeatherDisplay:10.37,2013-07-22 01:54:00,
2013-07-21 21:59:00,73.7,63.3,29.96,NNE,27,0.0,0.0,70,0.00,BKN,,0.00,WeatherDisplay:10.37,2013-07-22 01:59:00,
2013-07-21 22:04:00,73.6,63.6,29.95,NNE,27,0.0,0.0,71,0.00,BKN,,0.00,WeatherDisplay:10.37,2013-07-22 02:04:00,
2013-07-21 22:09:00,73.5,63.9,29.95,NNE,27,0.0,0.0,72,0.00,BKN,,0.00,WeatherDisplay:10.37,2013-07-22 02:09:00,
2013-07-21 22:14:00,73.5,65.5,29.95,NNE,27,0.0,1.2,76,0.00,BKN,,0.00,WeatherDisplay:10.37,2013-07-22 02:14:00,
2013-07-21 22:19:00,73.2,65.6,29.95,NNE,27,0.0,0.0,77,0.00,BKN,,0.00,WeatherDisplay:10.37,2013-07-22 02:19:00,
2013-07-21 22:24:00,73.0,65.7,29.95,NNE,27,0.0,0.0,78,0.00,BKN,,0.00,WeatherDisplay:10.37,2013-07-22 02:24:00,
2013-07-21 22:30:00,72.8,64.4,29.95,NNE,27,2.1,3.5,75,0.00,BKN,,0.00,WeatherDisplay:10.37,2013-07-22 02:30:00,
2013-07-21 22:38:00,72.5,63.0,29.95,NNE,27,1.1,3.5,72,0.00,BKN,,0.00,WeatherDisplay:10.37,2013-07-22 02:38:00,
2013-07-21 22:43:00,72.6,63.4,29.95,NNE,27,1.9,3.5,73,0.00,BKN,,0.00,WeatherDisplay:10.37,2013-07-22 02:43:00,
2013-07-21 22:48:00,72.6,63.8,29.95,NNE,26,0.0,0.0,74,0.00,BKN,,0.00,WeatherDisplay:10.37,2013-07-22 02:48:00,
2013-07-21 22:53:00,72.6,63.8,29.95,NNE,17,1.8,3.5,74,0.00,BKN,,0.00,WeatherDisplay:10.37,2013-07-22 02:53:00,
2013-07-21 23:01:00,72.3,63.2,29.95,North,355,1.4,3.5,73,0.00,BKN,,0.00,WeatherDisplay:10.37,2013-07-22 03:01:00,
2013-07-21 23:06:00,72.1,63.0,29.95,North,355,2.1,3.5,73,0.00,BKN,,0.00,WeatherDisplay:10.37,2013-07-22 03:06:00,
2013-07-21 23:11:00,72.0,62.9,29.95,North,355,0.6,2.3,73,0.00,BKN,,0.00,WeatherDisplay:10.37,2013-07-22 03:11:00,
2013-07-21 23:16:00,71.9,62.8,29.95,North,355,0.0,0.0,73,0.00,BKN,,0.00,WeatherDisplay:10.37,2013-07-22 03:16:00,
2013-07-21 23:21:00,71.8,64.9,29.95,North,355,0.4,2.3,79,0.00,BKN,,0.00,WeatherDisplay:10.37,2013-07-22 03:21:00,
2013-07-21 23:26:00,71.6,66.2,29.95,North,355,0.0,0.0,83,0.00,BKN,,0.00,WeatherDisplay:10.37,2013-07-22 03:26:00,
2013-07-21 23:33:00,71.1,65.7,29.96,North,355,0.0,0.0,83,0.00,BKN,,0.00,WeatherDisplay:10.37,2013-07-22 03:33:00,
2013-07-21 23:39:00,70.8,65.4,29.96,North,355,0.0,1.0,83,0.00,BKN,,0.00,WeatherDisplay:10.37,2013-07-22 03:39:00,
2013-07-21 23:45:00,70.6,65.5,29.96,North,355,0.0,1.2,84,0.00,BKN,,0.00,WeatherDisplay:10.37,2013-07-22 03:45:00,
2013-07-21 23:51:00,70.6,65.9,29.96,North,355,0.0,0.0,85,0.00,BKN,,0.00,WeatherDisplay:10.37,2013-07-22 03:51:00,
2013-07-21 23:56:00,70.6,65.9,29.96,North,360,0.0,1.2,85,0.00,BKN,,0.00,WeatherDisplay:10.37,2013-07-22 03:56:00,